Meteo orario Abella de la Conca

Oggi, 18 Giugno, Venerdi

Tempo Temperatura Precipitazioni Vento Pressione Umidità
00:00 +12°C° 0 mm 1 m/s 654 mm Hg 90%
01:00 +12°C° 0 mm 1 m/s 654 mm Hg 89%
02:00 +12°C° 0 mm 1 m/s 654 mm Hg 88%
03:00 +11°C° 0 mm 1 m/s 653 mm Hg 86%
04:00 +12°C° 0 mm 1 m/s 654 mm Hg 84%
05:00 +13°C° 0 mm 1 m/s 654 mm Hg 81%
06:00 +14°C° 0 mm 1 m/s 655 mm Hg 78%
07:00 +16°C° 0 mm 1 m/s 655 mm Hg 68%
08:00 +19°C° 0 mm 1 m/s 656 mm Hg 59%
09:00 +21°C° 0 mm 1 m/s 657 mm Hg 49%
10:00 +23°C° 0 mm 1 m/s 657 mm Hg 44%
11:00 +24°C° 0 mm 2 m/s 658 mm Hg 39%
12:00 +25°C° 0 mm 2 m/s 658 mm Hg 33%
13:00 +26°C° 0 mm 2 m/s 658 mm Hg 32%
14:00 +26°C° 0 mm 2 m/s 658 mm Hg 31%
15:00 +26°C° 0 mm 2 m/s 657 mm Hg 30%
16:00 +25°C° 0 mm 2 m/s 657 mm Hg 38%
17:00 +24°C° 0 mm 2 m/s 657 mm Hg 45%
18:00 +21°C° 0 mm 2 m/s 656 mm Hg 52%
19:00 +19°C° 0 mm 2 m/s 656 mm Hg 59%
20:00 +19°C° 0 mm 1 m/s 657 mm Hg 67%
21:00 +16°C° 0 mm 1 m/s 657 mm Hg 74%
22:00 +15°C° 0 mm 1 m/s 657 mm Hg 76%
23:00 +15°C° 0 mm 1 m/s 656 mm Hg 79%

Domani, 19 Giugno, Sabato

Tempo Temperatura Precipitazioni Vento Pressione Umidità
00:00 +14°C° 0 mm 1 m/s 656 mm Hg 82%
01:00 +14°C° 0 mm 1 m/s 656 mm Hg 80%
02:00 +14°C° 0 mm 1 m/s 655 mm Hg 79%
03:00 +14°C° 0 mm 1 m/s 655 mm Hg 77%
04:00 +14°C° 0.1 mm 1 m/s 656 mm Hg 76%
05:00 +15°C° 0.1 mm 1 m/s 656 mm Hg 74%
06:00 +15°C° 0.1 mm 1 m/s 656 mm Hg 73%
07:00 +19°C° 0 mm 1 m/s 656 mm Hg 64%
08:00 +21°C° 0 mm 1 m/s 657 mm Hg 54%
09:00 +24°C° 0 mm 1 m/s 657 mm Hg 45%
10:00 +24°C° 0 mm 2 m/s 657 mm Hg 44%
11:00 +25°C° 0 mm 3 m/s 657 mm Hg 42%
12:00 +26°C° 0 mm 5 m/s 657 mm Hg 41%
13:00 +25°C° 0.2 mm 5 m/s 657 mm Hg 44%
14:00 +25°C° 0.2 mm 5 m/s 656 mm Hg 47%
15:00 +23°C° 0.2 mm 5 m/s 656 mm Hg 50%
16:00 +22°C° 0.8 mm 4 m/s 655 mm Hg 58%
17:00 +20°C° 0.8 mm 3 m/s 655 mm Hg 65%
18:00 +19°C° 0.8 mm 3 m/s 655 mm Hg 73%
19:00 +18°C° 0.7 mm 2 m/s 655 mm Hg 77%
20:00 +16°C° 0.7 mm 1 m/s 654 mm Hg 82%
21:00 +15°C° 0.7 mm 1 m/s 654 mm Hg 86%
22:00 +15°C° 0.8 mm 1 m/s 654 mm Hg 89%
23:00 +14°C° 0.8 mm 1 m/s 654 mm Hg 92%

Dopodomani, 20 Giugno, Domenica

Tempo Temperatura Precipitazioni Vento Pressione Umidità
00:00 +14°C° 0.8 mm 1 m/s 654 mm Hg 94%
01:00 +13°C° 1.3 mm 1 m/s 653 mm Hg 95%
02:00 +13°C° 1.3 mm 1 m/s 653 mm Hg 95%
03:00 +13°C° 1.3 mm 1 m/s 652 mm Hg 95%
04:00 +13°C° 0.6 mm 1 m/s 653 mm Hg 93%
05:00 +13°C° 0.6 mm 1 m/s 653 mm Hg 90%
06:00 +13°C° 0.6 mm 0 m/s 653 mm Hg 88%
07:00 +15°C° 0 mm 1 m/s 653 mm Hg 76%
08:00 +17°C° 0 mm 2 m/s 653 mm Hg 65%
09:00 +18°C° 0 mm 2 m/s 653 mm Hg 53%
10:00 +19°C° 0 mm 3 m/s 653 mm Hg 49%
11:00 +19°C° 0 mm 3 m/s 654 mm Hg 44%
12:00 +20°C° 0 mm 4 m/s 654 mm Hg 39%
13:00 +20°C° 0 mm 4 m/s 654 mm Hg 39%
14:00 +20°C° 0 mm 4 m/s 653 mm Hg 39%
15:00 +19°C° 0 mm 3 m/s 653 mm Hg 39%
16:00 +19°C° 0 mm 3 m/s 653 mm Hg 42%
17:00 +18°C° 0 mm 2 m/s 653 mm Hg 45%
18:00 +18°C° 0 mm 2 m/s 652 mm Hg 48%
19:00 +18°C° 0 mm 1 m/s 652 mm Hg 53%
20:00 +15°C° 0 mm 1 m/s 652 mm Hg 59%
21:00 +14°C° 0 mm 1 m/s 652 mm Hg 64%
22:00 +14°C° 0 mm 1 m/s 652 mm Hg 64%
23:00 +14°C° 0 mm 1 m/s 652 mm Hg 64%

21 Giugno, Lunedi

Tempo Temperatura Precipitazioni Vento Pressione Umidità
00:00 +14°C° 0 mm 1 m/s 652 mm Hg 65%
01:00 +14°C° 0 mm 1 m/s 652 mm Hg 68%
02:00 +13°C° 0 mm 1 m/s 651 mm Hg 70%
03:00 +12°C° 0 mm 1 m/s 651 mm Hg 73%
04:00 +13°C° 0 mm 1 m/s 651 mm Hg 73%
05:00 +13°C° 0 mm 1 m/s 651 mm Hg 72%
06:00 +13°C° 0 mm 1 m/s 652 mm Hg 71%
07:00 +15°C° 0 mm 2 m/s 652 mm Hg 65%
08:00 +16°C° 0 mm 2 m/s 652 mm Hg 58%
09:00 +17°C° 0 mm 3 m/s 653 mm Hg 51%
10:00 +18°C° 0 mm 3 m/s 653 mm Hg 46%
11:00 +19°C° 0 mm 3 m/s 653 mm Hg 41%
12:00 +20°C° 0 mm 4 m/s 653 mm Hg 36%
13:00 +20°C° 0 mm 4 m/s 653 mm Hg 35%
14:00 +21°C° 0 mm 3 m/s 653 mm Hg 34%
15:00 +21°C° 0 mm 3 m/s 653 mm Hg 33%
16:00 +20°C° 0 mm 3 m/s 653 mm Hg 36%
17:00 +20°C° 0 mm 2 m/s 653 mm Hg 38%
18:00 +19°C° 0 mm 2 m/s 653 mm Hg 40%
19:00 +17°C° 0 mm 2 m/s 653 mm Hg 46%
20:00 +15°C° 0 mm 1 m/s 653 mm Hg 51%
21:00 +13°C° 0 mm 1 m/s 652 mm Hg 57%
22:00 +13°C° 0 mm 1 m/s 652 mm Hg 58%
23:00 +12°C° 0 mm 1 m/s 652 mm Hg 59%

22 Giugno, Martedi

Tempo Temperatura Precipitazioni Vento Pressione Umidità
00:00 +12°C° 0 mm 1 m/s 652 mm Hg 61%
01:00 +12°C° 0 mm 1 m/s 652 mm Hg 61%
02:00 +11°C° 0 mm 1 m/s 652 mm Hg 62%
03:00 +11°C° 0 mm 1 m/s 652 mm Hg 63%
04:00 +12°C° 0 mm 1 m/s 652 mm Hg 61%
05:00 +13°C° 0 mm 1 m/s 653 mm Hg 59%
06:00 +14°C° 0 mm 1 m/s 653 mm Hg 56%
07:00 +16°C° 0 mm 1 m/s 654 mm Hg 51%
08:00 +17°C° 0 mm 2 m/s 654 mm Hg 46%
09:00 +19°C° 0 mm 2 m/s 655 mm Hg 41%
10:00 +19°C° 0 mm 2 m/s 655 mm Hg 40%
11:00 +19°C° 0 mm 2 m/s 655 mm Hg 40%
12:00 +20°C° 0 mm 2 m/s 655 mm Hg 39%
13:00 +20°C° 0.1 mm 2 m/s 655 mm Hg 38%
14:00 +21°C° 0.1 mm 2 m/s 655 mm Hg 36%
15:00 +21°C° 0.1 mm 2 m/s 655 mm Hg 35%
16:00 +20°C° 0.4 mm 3 m/s 655 mm Hg 43%
17:00 +18°C° 0.4 mm 3 m/s 655 mm Hg 51%
18:00 +16°C° 0.4 mm 3 m/s 654 mm Hg 60%
19:00 +15°C° 1.2 mm 2 m/s 655 mm Hg 68%
20:00 +13°C° 1.2 mm 1 m/s 655 mm Hg 76%
21:00 +12°C° 1.2 mm 1 m/s 656 mm Hg 84%
22:00 +12°C° 0.3 mm 1 m/s 656 mm Hg 84%
23:00 +11°C° 0.3 mm 1 m/s 656 mm Hg 84%

23 Giugno, Mercoledi

Tempo Temperatura Precipitazioni Vento Pressione Umidità
00:00 +10°C° 0.3 mm 2 m/s 655 mm Hg 84%
01:00 +9°C° 0 mm 2 m/s 655 mm Hg 84%
02:00 +9°C° 0 mm 2 m/s 655 mm Hg 84%
03:00 +9°C° 0 mm 2 m/s 655 mm Hg 84%
04:00 +9°C° 0 mm 2 m/s 655 mm Hg 82%
05:00 +10°C° 0 mm 2 m/s 655 mm Hg 79%
06:00 +11°C° 0 mm 1 m/s 656 mm Hg 77%
07:00 +13°C° 0 mm 1 m/s 656 mm Hg 68%
08:00 +15°C° 0 mm 1 m/s 657 mm Hg 60%
09:00 +18°C° 0 mm 1 m/s 657 mm Hg 52%
10:00 +19°C° 0.2 mm 1 m/s 658 mm Hg 51%
11:00 +18°C° 0.2 mm 2 m/s 658 mm Hg 50%
12:00 +19°C° 0.2 mm 2 m/s 658 mm Hg 49%
13:00 +18°C° 0.3 mm 2 m/s 658 mm Hg 50%
14:00 +18°C° 0.3 mm 2 m/s 658 mm Hg 52%
15:00 +18°C° 0.3 mm 2 m/s 658 mm Hg 53%
16:00 +18°C° 0.1 mm 2 m/s 658 mm Hg 54%
17:00 +18°C° 0.1 mm 2 m/s 658 mm Hg 56%
18:00 +18°C° 0.1 mm 1 m/s 658 mm Hg 57%
19:00 +16°C° 0 mm 2 m/s 658 mm Hg 63%
20:00 +14°C° 0 mm 2 m/s 658 mm Hg 69%
21:00 +12°C° 0 mm 2 m/s 658 mm Hg 75%
22:00 +12°C° 0 mm 2 m/s 658 mm Hg 78%
23:00 +10°C° 0 mm 2 m/s 658 mm Hg 81%
Mostrare altro

Abbiamo bisogno del tuo consenso

Meteoprog e i nostri fornitori di servizi possono memorizzare e accedere a dati personali come cookie, identificatori di dispositivi o altre tecnologie simili sul tuo dispositivo e possono elaborare tali dati per personalizzare i contenuti e gli annunci, nonché fornire funzionalità dei social media e analizzarne il traffico.

  • Archiviare e/o accedere alle informazioni sul tuo dispositivo

    Cookie, identificatori di dispositivi o altre informazioni possono essere memorizzati o resi accessibili sul tuo dispositivo per le finalità sopra indicate.

  • Annunci e contenuti personalizzati, misurazione di annunci e contenuti, approfondimenti sul pubblico e sviluppo di prodotti

    Gli annunci e i contenuti possono essere personalizzati in base a un profilo. È possibile aggiungere più dati per personalizzare meglio annunci e contenuti. È possibile misurare il rendimento degli annunci e dei contenuti. È possibile ricavare informazioni sul pubblico che ha visto gli annunci e i contenuti. Tali dati possono essere utilizzati per sviluppare o migliorare l'esperienza, i sistemi e il software dell'utente.

Cliccando su “Accetto”, acconsenti all'uso di cookie, identificatori di dispositivo, web beacon o altre tecnologie simili. Puoi modificare le impostazioni nel browser del tuo dispositivo.

Per determinati scopi, è possibile fare affidamento su interessi legali, piuttosto che sul consenso. Puoi approfondire questo argomento consultando la nostra Informativa sulla privacy e sui cookie.